Вернуться в каталог

STARLINK-5590

АктивенСвязьVLEO
NORAD 55371·PAYLOAD·🇺🇸 United States

Запущен Jan 26, 2023 с Cape Canaveral Space Force Station

Loading…

Ближайшие Пролёты (ближайшие 24 часа)

TLE

СвежийSource: CelesTrak SupGP

Эпоха: Sep 14, 2026, 22:14 UTC

1 55371C 23013AS  26257.92687500 -.00035406  00000+0 -12823-2 0  2573
2 55371  43.0010 332.5063 0001545 269.3959 257.8262 15.27598210    14

Отслеживайте STARLINK-5590 в реальном времени с AllMySat

Download on the App Store